Find Starlink 4098

NORAD ID: 53153 Int'l Des: 2022-083 Owner: SPXS Country: US Constellation: starlink operational
LEOCIRCULAR

当前视图

正在加载3D地球...

About Starlink 4098

Starlink 4098 (NORAD 53153) is a starlink constellation satellite (v1.5) launched Jul 17, 2022 by SPXS of US. It operates in LEO, CIRCULAR orbit with a mass of 297.00 kg.

即将过境

Passes for default location (London). Set your location on the main map for personalized predictions.

高度历史

Loading altitude history...

两行轨道根数

1 53153U 22083X 26237.66668981 .00073070 00000-0 29469-2 0 9991
2 53153 53.1591 123.7233 0001821 99.5471 353.7508 15.24174697 5812
Epoch: Aug 25, 2026 • Age: 3 hours

当前状态

高度 493.0 km
远地点 / 近地点 N/A
速度 7.62 km/s
星下点 8.05°N, 30.69°E
发射日期 Jul 17, 2022
运行时间 4.1 years
类型 internet

技术详情

分类 Payload
质量 297.00 kg
干质量 275.00 kg
总质量 297.00 kg
长度 0.20 m
直径 2.80 m
跨度 9.00 m
形状 Box + pan
制造商 SPXS
平台类型 Starlink
阶段状态 In Orbit
所有者/国家 SPXS/US

Most Searched